Weather Roundup
Issued by NWS

Home | Current Version | Previous Version | Graphics & Text | Print | Product List | Glossary On
Versions: 1 2 3 4 5 6 7 8 9 10 11 12 13 14 15 16 17 18 19 20 21 22 23 24 25 26 27 28 29 30 31 32 33 34 35 36 37 38 39 40 41 42 43 44 45 46 47 48 49 50
000
NZUS93 KARX 261659
HRRWXR

CURRENT HOURLY OBSERVATIONS ACROSS
MUCH OF THE UPPER MISSISSIPPI VALLEY
NATIONAL WEATHER SERVICE LA CROSSE WI
1100 AM CST MON JAN 26 2015


...SOUTHEAST MINNESOTA...


CITY           SKY/WX    TMP DP  RH WIND       PRES   REMARKS
ROCHESTER      CLOUDY    33  30  88 W15       29.72R WCI  23
ROCHESTER/MAYO CLOUDY    34  30  86 W8        29.71S WCI  27
WINONA         CLOUDY    30  27  86 CALM      29.77R
AUSTIN         PTSUNNY   36  32  87 W8        29.74R WCI  29
ALBERT LEA     SUNNY     39  36  87 NW13      29.73R WCI  32
DODGE CENTER   CLOUDY    36  34  93 W13       29.71R WCI  27
PRESTON        CLOUDY    28  26  93 SW8       29.73S FOG     WCI  20
OWATONNA       PTSUNNY   37  32  81 W10       29.73S WCI  30
FARIBAULT      MOSUNNY   39  32  75 W9        29.74R WCI  33
$$

...ELSEWHERE IN MINNESOTA...


CITY           SKY/WX    TMP DP  RH WIND       PRES   REMARKS
MINNEAPOLIS    MOSUNNY   37  31  78 W10       29.72R WCI  30
INTNL FALLS    CLOUDY    30  27  88 NW10      29.63R WCI  21
DULUTH         CLOUDY    24  20  84 SW7       29.64R FOG     WCI  16
RED WING       CLOUDY    36  30  80 CALM      29.71R
REDWOOD FALLS  SUNNY     42  34  73 NW14      29.78R
MANKATO        SUNNY     39  32  75 NW22      29.76R WCI  29
WORTHINGTON    SUNNY     39  34  81 NW14      29.83R WCI  31
FAIRMONT       SUNNY     43  32  65 NW17G23   29.78R
$$

...SOUTHWEST WISCONSIN...


CITY           SKY/WX    TMP DP  RH WIND       PRES   REMARKS
LA CROSSE      CLOUDY    25  20  81 S14       29.78F WCI  13
PRAIRIE DU CHI CLOUDY    25  19  80 SE9       29.82F WCI  15
BOSCOBEL       CLOUDY    24  17  74 VRB7      29.84F WCI  16
LONE ROCK      NOT AVBL
PLATTEVILLE    CLOUDY    20  18  89 SE14      29.84F WCI   7
FORT MC COY    CLOUDY    23  19  83 S5        29.80R WCI  17
VIROQUA        CLOUDY    22  20  91 S10       29.77S WCI  11
WIS DELLS      NOT AVBL
$$

...ELSEWHERE IN WISCONSIN...


CITY           SKY/WX    TMP DP  RH WIND       PRES   REMARKS
MILWAUKEE      PTSUNNY   26  15  63 S8        29.90F WCI  18
MADISON        LGT SNOW  20  16  84 S10       29.86F FOG     WCI   9
GREEN BAY      CLOUDY    24  17  74 S13       29.88F WCI  12
EAU CLAIRE     NOT AVBL
BLACK RVR FLS  CLOUDY    23  19  84 S3        29.77S
MEDFORD        MIX PCPN  17  15  90 SE7       29.74R WCI   8
WAUSAU         LGT SNOW  18  14  84 SE7       29.78R FOG     WCI   9
WIS RAPIDS     LGT SNOW  20  15  81 S7        29.81F WCI  11
MARSHFIELD     LGT SNOW  19  16  88 S9        29.76S VSB 3/4 WCI   8
RICE LAKE      LGT SNOW  23  21  93 SE6       29.72R WCI  15
$$

...NORTHEAST IOWA...


CITY           SKY/WX    TMP DP  RH WIND       PRES   REMARKS
DECORAH        CLOUDY    27  25  93 S8G16     29.75F WCI  18
MASON CITY     SUNNY     40  34  79 NW17      29.76S WCI  31
CHARLES CITY   CLOUDY    32  32 100 SW12      29.76F WCI  23
OELWEIN        CLOUDY    27  25  93 S15       29.80S WCI  15
$$

...ELSEWHERE IN IOWA...


CITY           SKY/WX    TMP DP  RH WIND       PRES   REMARKS
DES MOINES     MOSUNNY   43  32  65 W13G22    29.81S
IOWA CITY      CLOUDY    28  25  88 SE12      29.86F WCI  18
FORT DODGE     SUNNY     41  34  75 NW9G20    29.81R
$$

...NORTHERN ILLINOIS...


CITY           SKY/WX    TMP DP  RH WIND       PRES   REMARKS
CHICAGO-OHARE  CLOUDY    24  16  71 SW7       29.92F WCI  16
CHICAGO-MIDWAY CLOUDY    26  18  71 S5        29.93F WCI  20
MOLINE         LGT SNOW  24  21  88 S8        29.90F VSB 3/4 WCI  15
ROCKFORD       LGT SNOW  22  16  78 S7        29.92F WCI  13
PEORIA         LGT SNOW  25  20  81 SW3       29.97R VSB 3/4
$$

NOTE: "FAIR" INDICATES FEW OR NO CLOUDS BELOW 12,000 FEET WITH NO
SIGNIFICANT WEATHER AND/OR OBSTRUCTIONS TO VISIBILITY. WIND
SPEEDS ARE IN MILES-PER-HOUR.



USA.gov is the U.S. government's official web portal to all federal, state and local government web resources and services.